Content
SEND FEEDBACK

Daily
Averages
Monthly
Summary
United States of America

BURLINGTON, NORTH DAKOTA


Home > North America > United States > North Dakota
Elevation: 1679 feet     Latitude: 48 16N     Longitude: 101 17W

WEATHER
 
SELECT A DAY
Number of Records: 203,057;   Date Range: 1/1/95 - 10/20/14
 
SHARE

PRINT THIS DATA

[ ← Previous Day ]
WEATHER ALMANAC - DECEMBER 25, 2013
[ Next Day → ]
[ °C ]   °F
Weather ElementAverageHighLow
Temperature25.1 °F28.9 °F (1:07 am)19.9 °F (4:54 am)
Dewpoint18.7 °F24.1 °F (1:07 am)12.9 °F (4:54 am)
Humidity76.9 %88 % (11:54 pm)69 % (2:54 am)
Barometer30.12 in30.22 in (8:54 am)29.98 in (1:07 am)
Wind Speed14 mph28.8 mph (2:54 am)
Wind Gust38 mph (2:54 am)
Weather ElementAverage
Visibility9.8 mi
Wind DirectionWSW (262.2 °)

Weather ElementTotal
Precipitation---
Heating Degree Days40.6 (Base 65)
Averaged from 36 records on December 25, 2013
WEATHER CONDITIONS BREAKOUT
WIND DIRECTION BREAKOUT
WEATHER BY HOUR - DECEMBER 25, 2013
[ °C ]   °F
Local TimeTemperatureDewpointHumidityBarometerVisibilityWind DirectionWind SpeedGust SpeedPrecipitationEventsConditions
1:07 AM28.9 °F24.1 °F82 %29.98 in10.0 miWNW (300°)19.6 mph27.6 mphOvercast
1:20 AM28.9 °F24.1 °F82 %29.99 in10.0 miWNW (300°)19.6 mphOvercast
1:54 AM28.0 °F21.9 °F78 %30.08 in10.0 miWNW (300°)21.9 mph28.8 mphOvercast
2:54 AM27.0 °F18.0 °F69 %30.11 in9.0 miNW (310°)28.8 mph38.0 mph0.00 inOvercast
3:54 AM24.1 °F17.1 °F75 %30.14 in9.0 miNW (310°)25.3 mph33.4 mph0.00 inSnowLight Snow
4:01 AM23.0 °F16.0 °F74 %30.07 in9.0 miNW (310°)26.5 mph33.4 mph0.00 inSnowLight Snow
4:54 AM19.9 °F12.9 °F74 %30.18 in10.0 miNW (310°)13.8 mph0.00 inClear
5:54 AM21.9 °F15.1 °F75 %30.18 in10.0 miWNW (300°)12.7 mphOvercast
6:54 AM23.0 °F17.1 °F78 %30.19 in10.0 miWest (270°)12.7 mph0.00 inOvercast
7:07 AM24.1 °F18.0 °F77 %30.12 in9.0 miWest (280°)12.7 mph0.00 inSnowLight Snow
7:47 AM25.0 °F19.9 °F81 %30.13 in10.0 miWNW (300°)18.4 mph0.00 inOvercast
7:54 AM25.0 °F19.9 °F81 %30.20 in10.0 miWNW (290°)20.7 mph0.00 inOvercast
8:25 AM25.0 °F19.0 °F78 %30.14 in10.0 miWNW (300°)15.0 mphOvercast
8:54 AM25.0 °F18.0 °F75 %30.22 in10.0 miWNW (300°)12.7 mphOvercast
9:54 AM26.1 °F17.1 °F69 %30.22 in10.0 miWNW (290°)17.3 mphOvercast
10:20 AM24.1 °F17.1 °F75 %30.13 in10.0 miWest (280°)12.7 mphMostly Cloudy
10:38 AM25.0 °F17.1 °F72 %30.14 in10.0 miWest (280°)11.5 mphMostly Cloudy
10:54 AM24.1 °F17.1 °F75 %30.21 in10.0 miWest (280°)10.4 mphMostly Cloudy
11:05 AM25.0 °F17.1 °F72 %30.13 in10.0 miWest (270°)10.4 mphScattered Clouds
11:47 AM27.0 °F19.0 °F72 %30.11 in10.0 miWSW (240°)10.4 mphMostly Cloudy
11:54 AM26.1 °F18.0 °F71 %30.18 in10.0 miWSW (250°)13.8 mphMostly Cloudy
12:54 PM26.1 °F19.0 °F75 %30.17 in10.0 miWest (280°)16.1 mphMostly Cloudy
1:06 PM26.1 °F19.9 °F78 %30.09 in10.0 miWest (270°)16.1 mphMostly Cloudy
1:31 PM26.1 °F19.9 °F78 %30.07 in10.0 miWest (270°)12.7 mphOvercast
1:54 PM27.0 °F21.0 °F78 %30.15 in10.0 miWest (260°)15.0 mphOvercast
2:24 PM27.0 °F19.9 °F75 %30.05 in10.0 miWSW (250°)16.1 mphPartly Cloudy
2:54 PM27.0 °F19.0 °F72 %30.12 in10.0 miWSW (250°)15.0 mphClear
3:54 PM26.1 °F19.0 °F75 %30.12 in10.0 miWest (260°)16.1 mphClear
4:54 PM25.0 °F18.0 °F75 %30.12 in10.0 miWest (260°)11.5 mphClear
5:54 PM25.0 °F19.0 °F78 %30.11 in10.0 miWest (270°)10.4 mphMostly Cloudy
6:54 PM25.0 °F19.0 °F78 %30.10 in10.0 miWSW (250°)8.1 mphOvercast
7:54 PM25.0 °F19.9 °F81 %30.07 in10.0 miWest (280°)5.8 mphOvercast
8:54 PM21.9 °F18.0 °F85 %30.06 in10.0 miSW (220°)8.1 mphMostly Cloudy
9:54 PM23.0 °F19.0 °F85 %30.05 in10.0 miWSW (250°)5.8 mphOvercast
10:54 PM24.1 °F19.0 °F81 %30.05 in8.0 miCalmOvercast
11:54 PM23.0 °F19.9 °F88 %30.03 in7.0 miCalmOvercast
Hourly data recorded from KMOT, located miles away from Burlington, North Dakota







STORIES FROM OUR PARTNERS